Tracking 31027 objects as of 18-Jul-2025
HD Live streaming from Space Station
objects crossing your sky now

SL-16 DEB

Track SL-16 DEB now!
10-day predictions


NORAD ID: 22602
Int'l Code: 1993-016L
Perigee: 844.6 km
Apogee: 1,139.7 km
Inclination: 71.0 °
Period: 104.8 minutes
Semi major axis: 7363 km
RCS: 0.0922 m2 (small)
Launch date: March 26, 1993
Source: Commonwealth of Independent States (former USSR) (CIS)
Launch site: TYURATAM MISSILE AND SPACE COMPLEX (TTMTR)

Note: This is SATELLITE DEBRIS
Your satellite tracking list
Your tracking list is empty




NASA's NSSDC Master Catalog

Two Line Element Set (TLE):
1 22602U 93016L   25198.41576343  .00000005  00000-0  43955-4 0  9994
2 22602  71.0434 248.2708 0200408 211.7402 240.1767 13.74063205619155
Source of the keplerian elements: AFSPC